Kosmos-2411

operational
NORAD ID: 28508 Int'l Des: 2004-053 Owner: KVR/IACG Country: RU Constellation: GLONASS
MEOCIRCULAR

About Kosmos-2411

Description loading...

Live Position

Loading 3D Globe...

Upcoming Passes

Altitude History

Altitude vs Time

uPlot chart will show altitude changes over time

Two-Line Element Set

1 28508U 04053A 25255.43019817 .00000014 00000-0 00000-0 0 9992
2 28508 64.0302 70.0468 0006493 204.5333 153.6337 2.13103355161208
Epoch: Sep 12, 2025 • Age: 161 hours

Current Status

Altitude 19135.7 km
Velocity 3.95 km/s
Sub-Earth Point 51.68°N, 156.69°E
Launch Date Dec 26, 2004
Age 20.7 years
Type other

Technical Details

Classification Payload
Mass 1450.00 kg
Dry Mass 1200.00 kg
Total Mass 1450.00 kg
Length 4.00 m
Diameter 1.50 m
Span 7.80 m
Shape Cyl + Ant + 2 Pan
Manufacturer POL
Bus Type Uragan
Phase Status In Orbit
Owner/State KVR/IACG/RU

Large Constellations

Loading constellations...